Covington, VA

8:17 PM EST on March 01, 2015 (GMT -0500)
Rich Patch Rd between Bensrun Rd and blue Spring Run Rd | Change Station
CLOSE
Current Station
Personal Weather Station
Location: Covington, VA
Elevation: 1604 ft
Nearby Weather Stations

Elev 1604 ft 37.68 °N, 80.07 °W | Updated 4 minutes ago

Overcast
Overcast
33.1 °F
Feels Like 33 °F
N
0.0
Wind Variable Wind from ESE

Today
High -- | Low -- °F
--% Chance of Precip.
Yesterday
High -- | Low -- °F
Precip. -- in
6:52 AM 6:13 PM
Waxing Gibbous, 88% visible
Pressure 30.25 in
Visibility 1.5 miles
Clouds Overcast 1000 ft
Windchill 33 °F
Dew Point 31 °F
Humidity 92%
Rainfall 0.00 in
Snow Depth Not available.
UV 0 out of 12
Pollen 1.60 out of 12
Air Quality Not available.
Flu Activity Not available.
METAR KLWB 020055Z AUTO 00000KT 1 1/2SM BR OVC010 02/01 A3025 RMK AO2 T00200013

More Conditions Fewer Conditions

Pressure 30.25 in
Visibility 1.5 miles
Clouds Overcast 1000 ft
Windchill 33 °F
Dew Point 31 °F
Humidity 92%
Rainfall 0.00 in
Snow Depth Not available.
UV 0 out of 12
Pollen 1.60 out of 12
Air Quality Not available.
Flu Activity Not available.
METAR KLWB 020055Z AUTO 00000KT 1 1/2SM BR OVC010 02/01 A3025 RMK AO2 T00200013

More Conditions Fewer Conditions

10-Day Weather Forecast

Almanac

Astronomy

Mar. 01, 2015 Rise Set
Actual Time
Civil Twilight
Nautical Twilight
Astronomical Twilight
Moon
Length of Visible Light
Length of Day
Tomorrow will be .
, % of the Moon is Illuminated

Today's Extremes

State Highs State Lows

Community

WunderPhotos

Upload Photos

1,801,670 photos uploaded!

WunderBlogs® & News

Nearby

Air Quality

  Air Quality AQ Index Pollutant
Not available.

Snow Depth

Station Depth Elevation

Earthquake Activity

City Distance Mag. Time & Date
Minimum magnitude displayed is 2.5.

Coastal Water Temperatures

Place Temperature

Nearby Weather Stations